Total_Precipitation_Accumulation
0.03 0.09 0.22 0.22 0.22 0.20 0.19 0.20 0.20 0.20 0.20 0.21 0.19 0.21 0.24 0.22 0.18 0.14 0.16 0.18 0.21 0.27 0.33 0.34 0.39 0.42 0.40 0.38 0.34 0.19 0.10 0.08 0.06 0.06 0.06 0.09 0.11 0.12 0.10 0.11 0.12 0.12 0.15
0.04 0.09 0.19 0.22 0.24 0.22 0.22 0.21 0.18 0.18 0.21 0.22 0.23 0.25 0.28 0.25 0.20 0.18 0.18 0.20 0.24 0.31 0.33 0.32 0.28 0.26 0.25 0.24 0.18 0.09 0.04 0.02 0.01 0.01 0.01 0.03 0.06 0.09 0.10 0.10 0.10 0.12 0.15
0.05 0.10 0.20 0.23 0.27 0.26 0.24 0.21 0.17 0.16 0.19 0.23 0.26 0.30 0.30 0.26 0.25 0.24 0.25 0.25 0.29 0.31 0.29 0.23 0.19 0.13 0.10 0.09 0.07 0.04 0.02 0.01 0.01 0.01 0.02 0.03 0.05 0.08 0.10 0.10 0.11 0.12 0.12
0.04 0.11 0.20 0.27 0.30 0.30 0.22 0.20 0.20 0.20 0.22 0.24 0.28 0.31 0.28 0.25 0.25 0.24 0.24 0.26 0.25 0.22 0.18 0.13 0.09 0.06 0.05 0.04 0.03 0.02 0.01 0.01 0.00 0.00 0.02 0.03 0.04 0.08 0.12 0.12 0.12 0.11 0.11
0.08 0.13 0.22 0.30 0.35 0.35 0.31 0.26 0.24 0.24 0.26 0.27 0.30 0.31 0.28 0.27 0.25 0.24 0.25 0.23 0.19 0.12 0.09 0.09 0.05 0.04 0.03 0.02 0.02 0.02 0.01 0.01 0.00 0.01 0.02 0.03 0.05 0.11 0.12 0.13 0.13 0.13 0.14
0.15 0.21 0.26 0.29 0.37 0.40 0.38 0.36 0.34 0.31 0.30 0.32 0.33 0.33 0.33 0.31 0.28 0.30 0.27 0.17 0.11 0.08 0.06 0.06 0.05 0.04 0.02 0.02 0.02 0.01 0.01 0.01 0.00 0.01 0.02 0.04 0.07 0.15 0.15 0.15 0.17 0.18 0.20
0.24 0.30 0.34 0.34 0.40 0.41 0.40 0.41 0.41 0.41 0.40 0.39 0.38 0.38 0.41 0.38 0.32 0.30 0.27 0.15 0.09 0.09 0.08 0.07 0.05 0.04 0.03 0.02 0.02 0.02 0.01 0.01 0.01 0.01 0.02 0.04 0.08 0.15 0.15 0.14 0.16 0.19 0.21
0.35 0.42 0.44 0.45 0.49 0.47 0.46 0.44 0.44 0.49 0.51 0.50 0.48 0.47 0.49 0.47 0.40 0.30 0.25 0.15 0.10 0.09 0.09 0.09 0.07 0.05 0.03 0.02 0.02 0.02 0.02 0.01 0.01 0.01 0.03 0.03 0.06 0.11 0.12 0.10 0.10 0.11 0.13
0.59 0.63 0.67 0.61 0.55 0.53 0.50 0.47 0.45 0.49 0.55 0.57 0.53 0.51 0.50 0.49 0.42 0.31 0.22 0.16 0.13 0.12 0.10 0.09 0.08 0.06 0.05 0.04 0.03 0.03 0.02 0.01 0.00 0.01 0.02 0.03 0.06 0.11 0.09 0.08 0.08 0.08 0.08
0.89 0.87 0.87 0.84 0.76 0.67 0.58 0.49 0.47 0.48 0.52 0.56 0.51 0.43 0.38 0.38 0.38 0.32 0.20 0.16 0.13 0.14 0.13 0.10 0.09 0.08 0.06 0.04 0.03 0.03 0.02 0.01 0.00 0.01 0.01 0.03 0.06 0.10 0.09 0.08 0.08 0.08 0.08
1.18 1.08 1.00 0.95 0.93 0.83 0.75 0.59 0.51 0.51 0.54 0.51 0.44 0.38 0.36 0.39 0.37 0.30 0.17 0.13 0.13 0.13 0.13 0.13 0.11 0.09 0.06 0.03 0.03 0.02 0.02 0.01 0.01 0.01 0.02 0.03 0.05 0.07 0.07 0.07 0.07 0.08 0.09
1.28 1.18 1.11 1.02 0.97 0.92 0.82 0.71 0.67 0.58 0.54 0.50 0.40 0.35 0.35 0.37 0.37 0.28 0.20 0.12 0.13 0.12 0.12 0.13 0.13 0.09 0.06 0.03 0.03 0.02 0.02 0.02 0.02 0.02 0.02 0.03 0.04 0.06 0.06 0.07 0.08 0.07 0.08
1.47 1.39 1.26 1.15 1.10 1.06 0.96 0.80 0.71 0.65 0.59 0.54 0.45 0.41 0.38 0.41 0.41 0.38 0.30 0.21 0.19 0.14 0.13 0.12 0.12 0.07 0.05 0.04 0.04 0.03 0.02 0.03 0.04 0.03 0.03 0.02 0.03 0.05 0.06 0.07 0.07 0.07 0.07
1.56 1.48 1.41 1.33 1.21 1.14 1.02 0.92 0.78 0.69 0.62 0.56 0.49 0.46 0.45 0.41 0.36 0.34 0.31 0.23 0.22 0.19 0.17 0.14 0.11 0.08 0.08 0.07 0.06 0.05 0.04 0.04 0.04 0.04 0.03 0.02 0.02 0.03 0.06 0.07 0.07 0.07 0.08
1.43 1.46 1.38 1.33 1.23 1.15 1.07 0.97 0.81 0.75 0.66 0.61 0.59 0.55 0.48 0.40 0.34 0.33 0.36 0.33 0.27 0.24 0.21 0.17 0.13 0.10 0.09 0.08 0.08 0.06 0.05 0.05 0.04 0.04 0.03 0.02 0.02 0.02 0.03 0.05 0.07 0.09 0.13
1.33 1.39 1.40 1.34 1.23 1.17 1.07 0.96 0.83 0.76 0.74 0.75 0.68 0.59 0.54 0.46 0.39 0.38 0.36 0.34 0.29 0.26 0.23 0.19 0.16 0.14 0.12 0.11 0.09 0.07 0.06 0.05 0.05 0.05 0.04 0.04 0.03 0.03 0.02 0.03 0.08 0.14 0.21
1.31 1.40 1.38 1.36 1.34 1.17 1.08 1.00 0.91 0.85 0.80 0.77 0.74 0.65 0.60 0.51 0.45 0.44 0.40 0.33 0.29 0.29 0.28 0.26 0.24 0.22 0.17 0.12 0.09 0.08 0.07 0.06 0.05 0.05 0.05 0.05 0.04 0.03 0.03 0.03 0.06 0.13 0.22
1.37 1.45 1.45 1.35 1.34 1.22 1.09 1.05 0.97 0.88 0.85 0.79 0.81 0.78 0.71 0.65 0.60 0.55 0.44 0.36 0.38 0.42 0.40 0.34 0.30 0.26 0.21 0.17 0.14 0.11 0.10 0.09 0.07 0.06 0.06 0.05 0.05 0.04 0.03 0.03 0.06 0.10 0.17
1.41 1.50 1.54 1.50 1.41 1.40 1.35 1.24 1.15 1.04 0.90 0.88 0.87 0.83 0.75 0.72 0.70 0.66 0.54 0.47 0.52 0.49 0.43 0.37 0.32 0.30 0.27 0.24 0.22 0.19 0.16 0.13 0.11 0.10 0.09 0.08 0.07 0.07 0.07 0.07 0.08 0.09 0.11
1.56 1.67 1.67 1.64 1.60 1.69 1.70 1.57 1.37 1.22 1.01 0.91 0.88 0.83 0.81 0.80 0.78 0.73 0.64 0.61 0.66 0.62 0.53 0.47 0.40 0.37 0.34 0.35 0.33 0.25 0.20 0.18 0.16 0.13 0.12 0.11 0.11 0.11 0.11 0.11 0.11 0.10 0.10
1.65 1.74 1.75 1.71 1.71 1.74 1.72 1.59 1.40 1.21 1.14 1.04 0.96 0.92 0.90 0.91 0.96 0.90 0.76 0.75 0.78 0.71 0.64 0.62 0.62 0.57 0.50 0.49 0.45 0.32 0.24 0.20 0.17 0.13 0.12 0.12 0.12 0.13 0.13 0.15 0.14 0.13 0.12
1.53 1.77 1.85 1.84 1.85 1.72 1.59 1.64 1.61 1.54 1.40 1.29 1.23 1.14 1.01 0.97 0.99 1.00 0.98 0.96 0.95 0.93 0.91 0.86 0.83 0.76 0.68 0.68 0.62 0.56 0.38 0.26 0.18 0.15 0.16 0.16 0.15 0.15 0.15 0.16 0.16 0.16 0.15
1.31 1.62 1.80 1.91 1.94 1.93 1.87 1.99 1.94 1.82 1.58 1.32 1.15 1.15 1.14 1.11 1.10 1.07 1.08 1.11 1.12 1.09 1.02 1.01 1.01 0.95 0.87 0.83 0.79 0.81 0.59 0.36 0.25 0.20 0.20 0.20 0.20 0.20 0.19 0.20 0.19 0.19 0.18
1.10 1.34 1.54 1.81 2.00 2.07 2.13 2.08 1.96 1.75 1.51 1.27 1.24 1.34 1.37 1.31 1.23 1.19 1.18 1.18 1.19 1.14 1.07 1.12 1.16 1.08 1.06 0.98 0.95 0.87 0.74 0.56 0.48 0.35 0.25 0.26 0.27 0.26 0.26 0.25 0.22 0.21 0.21
1.01 1.20 1.33 1.55 1.86 1.96 1.91 1.89 1.96 1.83 1.61 1.49 1.46 1.43 1.41 1.34 1.27 1.21 1.19 1.21 1.18 1.16 1.10 1.12 1.17 1.19 1.18 1.13 1.05 1.01 1.00 0.86 0.71 0.63 0.47 0.36 0.36 0.35 0.36 0.35 0.32 0.29 0.27
0.85 1.05 1.23 1.32 1.53 1.68 1.67 1.72 1.79 1.71 1.64 1.54 1.41 1.36 1.36 1.32 1.24 1.18 1.16 1.18 1.20 1.19 1.15 1.14 1.20 1.25 1.26 1.19 1.09 1.00 0.98 0.92 0.80 0.79 0.70 0.52 0.45 0.38 0.38 0.38 0.38 0.37 0.38